User: anonymous   Login
Location: Unspecified
(0.0000°N, 0.0000°E)
Time: 19:05:38
(UTC+00:00)
Language:

STARLINK-5463 - Orbit

View from above orbital plane
View from above orbital plane
View from above satellite
View from above satellite

Ground track
Ground track

The orbit is defined by the following mean orbital elements,

1 55673U          26145.50936333 +.00000000 +00000-0 -88526-5 0 00004
2 55673  69.9987 330.6736 0002841 265.9914  94.0920 14.98327605    04
Epoch (UTC): 25 May 2026 12:13:28
Eccentricity: 0.0002841
inclination: 69.9987°
perigee height: 570 km
apogee height: 574 km
right ascension of ascending node: 330.6736°
argument of perigee: 265.9914°
revolutions per day: 14.98327605
mean anomaly at epoch: 94.0920°

The dashed part of the orbit path shows where the satellite is in the earth's shadow,  

DLR